Vorticity
29 25 15 11 13 11 9 5 5 3 5 6 4 3 1 10 21 6 12 -2 7 4 -1 20 2 19 62 4 10 3 24 -9 14 8 16 9 2 3 0 0 2 14 9
24 31 33 25 17 9 12 12 9 5 2 6 7 5 8 4 1 -6 15 -20 -4 5 5 -8 15 -35 39 14 33 32 30 2 7 4 -2 3 0 8 10 7 9 11 10
26 21 24 31 30 24 17 7 9 11 8 4 5 7 4 5 4 4 -33 77 -6 2 7 6 -4 34 -8 33 6 7 10 1 6 9 10 12 7 4 7 8 10 9 8
28 31 29 22 26 30 25 23 14 6 10 10 5 5 10 5 1 -2 -23 -42 6 7 10 13 15 -11 -30 -8 5 25 7 5 4 8 -1 1 -5 10 12 15 13 8 7
24 27 31 29 29 25 28 28 22 21 6 10 8 5 5 9 9 13 3 9 -1 32 12 10 11 -2 16 31 4 6 16 3 3 2 9 8 10 13 10 8 8 9 8
13 11 16 27 32 32 27 30 32 20 22 15 9 8 4 6 3 9 20 7 -22 30 -5 19 8 10 12 18 16 17 6 5 -7 9 15 15 16 8 12 11 7 6 6
19 17 20 22 31 38 38 33 30 37 21 19 18 6 7 5 8 5 12 -4 -27 18 31 19 0 -2 22 11 -18 30 24 15 11 18 8 9 13 9 8 10 6 7 5
20 17 25 22 13 24 35 37 34 29 43 22 15 16 7 9 12 -4 1 23 17 18 18 7 13 13 -14 20 30 -4 -5 4 -2 4 6 -1 22 4 8 2 5 5 6
17 17 19 22 16 16 18 38 43 35 32 43 26 15 13 10 7 8 20 -18 -16 7 -14 18 14 13 -3 9 -5 -0 19 11 2 21 1 -11 -7 11 8 9 8 5 5
14 17 17 21 7 19 19 13 24 43 38 36 42 35 12 14 8 8 9 7 -9 8 10 -16 32 25 -23 -5 6 9 3 3 3 0 30 23 31 -1 12 8 3 4 7
17 17 17 13 14 12 11 13 17 19 40 35 32 44 33 11 6 7 12 14 -31 18 -4 15 16 20 -17 9 13 7 6 13 10 38 -19 -10 -30 14 10 6 -2 5 5
17 17 15 14 13 16 14 26 21 27 28 32 30 33 51 31 15 16 -3 9 -7 5 -12 43 32 8 -11 3 6 13 8 -10 -6 -12 -8 -3 3 11 8 8 5 5 5
13 17 16 20 14 19 18 13 23 22 37 28 22 32 52 46 27 13 2 34 -13 -17 21 27 4 27 20 17 6 3 -4 4 6 7 8 7 7 7 7 6 5 6 5
13 15 18 16 13 15 22 19 9 9 26 3 15 14 33 62 36 36 -15 -18 2 25 13 3 6 14 11 12 7 5 9 14 12 9 3 3 9 7 6 6 7 6 6
12 13 15 15 14 17 17 20 16 11 24 10 15 30 9 28 62 48 23 -40 40 27 -3 16 1 -1 -3 7 12 19 14 21 19 13 13 12 5 8 14 15 7 7 4
11 13 13 15 14 16 13 21 19 17 19 15 32 25 -9 40 21 51 20 12 -33 11 25 10 19 31 23 1 3 -16 17 12 22 17 18 17 7 4 0 -0 4 5 11
10 12 10 13 15 14 16 13 22 23 39 18 8 54 33 1 -0 38 50 -48 20 20 -25 -11 11 -15 39 -14 -46 2 7 5 -38 16 -1 -4 29 21 -1 1 6 12 4
13 9 12 10 12 15 14 13 14 20 17 22 8 34 15 -2 2 27 30 11 3 11 4 43 18 32 52 53 27 15 20 -2 21 -8 16 -10 5 11 12 15 16 16 12
10 12 10 9 10 12 14 13 12 11 17 15 14 26 20 38 19 12 21 18 8 12 -5 -34 14 -8 15 35 51 19 -5 20 -13 -18 10 13 14 -0 17 19 19 20 15
7 8 13 9 10 10 11 13 13 13 13 15 19 19 20 11 52 20 15 -10 12 48 13 -30 -22 18 0 14 15 26 16 6 6 14 3 15 21 20 9 1 -3 8 15
5 6 9 12 9 9 7 9 14 11 13 13 12 16 19 21 19 43 22 35 20 19 15 25 24 5 4 -9 -7 1 -1 3 17 18 18 11 7 6 7 5 19 10 15
12 7 6 8 11 11 7 7 9 10 13 13 12 13 15 14 14 16 25 31 21 14 3 15 21 12 15 18 21 24 25 9 10 4 23 6 11 6 11 16 2 8 12
11 12 7 7 7 10 12 8 6 7 9 12 12 10 12 14 16 17 17 12 10 15 13 14 12 7 12 21 11 10 20 10 14 7 20 12 8 11 7 6 10 9 9
14 11 11 7 8 7 9 12 11 8 6 6 10 12 11 9 11 11 11 17 19 19 17 16 12 17 14 13 14 7 9 4 4 2 3 4 16 14 19 14 14 11 11
17 15 13 12 9 9 8 8 10 11 7 7 4 8 11 10 11 10 8 8 10 13 17 19 18 17 17 17 16 17 18 21 20 23 21 22 23 24 20 17 14 15 15
19 20 18 17 12 11 9 10 8 8 11 13 8 3 7 8 9 10 9 10 8 7 7 8 10 11 12 13 14 14 13 12 10 11 9 11 10 10 11 11 10 10 12
Height
5472 5482 5494 5506 5518 5529 5542 5554 5565 5578 5590 5602 5612 5624 5636 5644 5648 5663 5668 5675 5683 5691 5697 5704 5709 5711 5716 5724 5730 5733 5738 5744 5750 5752 5755 5758 5761 5764 5764 5765 5766 5768 5769
5440 5448 5457 5469 5482 5498 5511 5525 5538 5551 5565 5577 5589 5602 5615 5625 5635 5643 5653 5661 5669 5675 5681 5690 5691 5700 5705 5710 5716 5721 5725 5732 5738 5740 5743 5747 5749 5751 5754 5755 5756 5758 5760
5412 5418 5426 5434 5445 5460 5478 5493 5508 5523 5538 5552 5564 5579 5593 5605 5617 5627 5637 5640 5650 5659 5667 5675 5684 5688 5695 5700 5705 5709 5715 5720 5726 5728 5731 5734 5738 5740 5743 5744 5746 5748 5749
5389 5393 5399 5406 5414 5425 5440 5457 5475 5492 5509 5526 5540 5555 5569 5582 5594 5607 5617 5624 5635 5645 5651 5659 5667 5676 5683 5687 5692 5698 5703 5707 5712 5717 5719 5724 5727 5729 5732 5734 5736 5736 5736
5371 5373 5376 5381 5387 5396 5407 5420 5437 5457 5478 5497 5512 5529 5544 5556 5571 5586 5600 5611 5621 5626 5634 5643 5651 5661 5670 5675 5680 5684 5690 5695 5701 5705 5707 5711 5715 5718 5721 5722 5724 5724 5725
5359 5359 5360 5362 5365 5371 5380 5391 5404 5420 5441 5462 5485 5501 5518 5534 5553 5567 5582 5593 5600 5604 5614 5625 5635 5646 5656 5662 5666 5671 5676 5680 5687 5693 5696 5699 5703 5706 5708 5711 5712 5713 5716
5349 5348 5348 5348 5350 5352 5357 5366 5377 5390 5405 5428 5454 5473 5493 5513 5531 5545 5561 5574 5582 5590 5599 5610 5620 5630 5640 5649 5657 5654 5661 5667 5674 5679 5684 5687 5690 5694 5697 5699 5701 5704 5705
5341 5339 5338 5338 5338 5339 5341 5345 5355 5365 5378 5396 5419 5443 5467 5489 5510 5524 5544 5558 5566 5574 5582 5594 5605 5614 5624 5635 5643 5639 5650 5654 5663 5667 5672 5675 5678 5679 5684 5687 5689 5691 5693
5334 5332 5331 5330 5331 5331 5331 5333 5338 5346 5358 5373 5391 5412 5436 5464 5486 5503 5524 5537 5544 5559 5566 5575 5586 5596 5611 5620 5629 5630 5637 5643 5648 5654 5658 5662 5665 5667 5670 5673 5677 5679 5681
5329 5326 5325 5324 5324 5324 5324 5326 5328 5333 5343 5355 5370 5386 5410 5436 5457 5479 5500 5520 5533 5532 5549 5558 5570 5582 5593 5602 5609 5617 5624 5633 5637 5641 5645 5647 5649 5653 5658 5661 5664 5667 5670
5324 5321 5320 5319 5319 5318 5318 5320 5322 5325 5331 5341 5354 5369 5388 5409 5432 5456 5478 5499 5513 5524 5533 5544 5557 5569 5575 5580 5593 5602 5612 5618 5623 5627 5632 5634 5636 5640 5645 5649 5651 5655 5656
5321 5318 5316 5314 5314 5314 5314 5315 5316 5319 5324 5331 5342 5353 5368 5388 5410 5434 5457 5478 5497 5510 5518 5530 5543 5555 5565 5571 5578 5589 5598 5600 5606 5612 5617 5623 5626 5630 5633 5635 5637 5639 5642
5317 5316 5314 5313 5313 5312 5311 5312 5313 5316 5320 5326 5336 5346 5357 5373 5393 5415 5441 5465 5481 5494 5506 5520 5529 5539 5548 5555 5564 5573 5579 5584 5591 5596 5603 5608 5612 5614 5617 5621 5623 5626 5628
5315 5314 5312 5310 5309 5309 5309 5310 5311 5314 5320 5327 5334 5342 5351 5362 5381 5401 5426 5447 5467 5479 5491 5503 5513 5525 5531 5541 5549 5556 5563 5569 5575 5581 5586 5590 5594 5598 5603 5607 5609 5611 5613
5313 5312 5310 5309 5309 5309 5308 5307 5309 5314 5318 5323 5329 5337 5346 5359 5372 5391 5413 5427 5447 5463 5480 5489 5498 5508 5519 5528 5536 5540 5546 5551 5557 5564 5569 5575 5579 5583 5587 5591 5594 5595 5598
5310 5310 5309 5309 5308 5307 5307 5307 5309 5311 5315 5320 5325 5332 5343 5351 5364 5383 5402 5415 5433 5446 5464 5481 5490 5500 5503 5514 5523 5526 5533 5537 5543 5548 5553 5558 5564 5569 5572 5575 5578 5580 5582
5308 5308 5307 5307 5306 5307 5307 5308 5309 5311 5313 5318 5324 5331 5339 5350 5362 5375 5393 5414 5425 5436 5449 5461 5470 5477 5491 5501 5502 5510 5518 5522 5527 5533 5538 5543 5548 5552 5557 5560 5563 5564 5565
5306 5306 5306 5306 5306 5305 5306 5308 5309 5310 5312 5316 5323 5331 5339 5347 5357 5370 5383 5403 5420 5422 5439 5450 5460 5469 5475 5484 5490 5498 5506 5507 5513 5517 5524 5528 5534 5538 5541 5544 5545 5546 5548
5302 5303 5304 5304 5304 5304 5306 5308 5309 5311 5313 5316 5321 5328 5334 5342 5351 5363 5376 5389 5402 5411 5424 5435 5447 5457 5464 5469 5474 5481 5485 5492 5496 5500 5506 5512 5516 5522 5524 5526 5528 5530 5532
5299 5299 5301 5303 5303 5304 5306 5307 5309 5312 5315 5318 5322 5326 5331 5340 5348 5358 5371 5382 5391 5401 5415 5426 5434 5442 5447 5452 5456 5463 5470 5475 5481 5486 5492 5496 5500 5504 5507 5510 5513 5515 5516
5295 5296 5297 5298 5301 5302 5304 5306 5308 5311 5314 5318 5322 5325 5330 5336 5343 5351 5363 5371 5381 5393 5404 5410 5420 5428 5433 5439 5445 5450 5456 5461 5467 5473 5478 5482 5486 5489 5493 5496 5497 5499 5501
5289 5291 5293 5294 5295 5298 5301 5303 5306 5309 5313 5316 5321 5325 5329 5334 5340 5347 5355 5363 5372 5381 5391 5399 5406 5412 5419 5425 5431 5438 5443 5449 5454 5459 5463 5467 5471 5475 5478 5480 5483 5485 5487
5283 5285 5287 5290 5292 5293 5296 5299 5303 5307 5310 5313 5317 5322 5327 5332 5336 5342 5348 5355 5362 5371 5378 5386 5392 5399 5406 5414 5420 5425 5428 5433 5440 5445 5448 5453 5457 5459 5462 5465 5468 5470 5472
5276 5278 5281 5284 5287 5289 5291 5294 5299 5303 5307 5311 5314 5319 5322 5328 5332 5336 5342 5348 5355 5362 5369 5376 5380 5387 5393 5400 5405 5410 5416 5422 5426 5430 5434 5438 5442 5445 5447 5450 5452 5454 5456
5267 5270 5274 5277 5280 5284 5287 5290 5292 5296 5300 5304 5310 5315 5318 5322 5327 5331 5337 5344 5350 5355 5361 5367 5373 5378 5383 5388 5392 5397 5402 5408 5412 5416 5419 5423 5426 5429 5433 5435 5438 5439 5441
5260 5262 5265 5268 5272 5276 5280 5283 5287 5291 5295 5299 5303 5307 5311 5317 5321 5326 5331 5337 5343 5348 5353 5359 5364 5369 5374 5379 5383 5388 5392 5397 5402 5405 5409 5411 5414 5417 5421 5423 5424 5425 5426